Trollhattan Vanersborg current weather conditions

sailwx.info

Wind from 240 at 20 knots gusting 31

Air temperature 6.0° C
Visibility: greater than 5.4 NM
Dewpoint 2.0° C

Last reported at 2017-Feb-22 17:20 UTC.
Time now 2017-Feb-22 20:06 UTC

Location: N 58°19' E 012°21'.
View on Google Maps.

See reports from other nearby stations

  
Tides and Currents Weather Stations Pressure Air Temp Water Temp Dewpoint Dewpoint Depression Visibility Wind Speed Wind Dir Waves Ship Positions
date/time (UTC)wind fromknots sea level pressurealtimeterstation pressurevisibilityair tempwater tempwave heightnotes
2017-Feb-22 17:20 240 20 gusting 31 5.4 6.0
2017-Feb-22 16:50 250 24 gusting 36 5.4 6.0
2017-Feb-22 16:20 230 20 gusting 34 5.4 6.0
2017-Feb-22 15:50 250 22 gusting 41 5.4 6.0
2017-Feb-22 15:20 250 20 gusting 33 5.4 6.0
2017-Feb-22 14:50 250 20 gusting 33 5.4 6.0
2017-Feb-22 14:20 230 22 gusting 36 5.4 6.0
2017-Feb-22 13:50 230 22 gusting 33 5.4 6.0
2017-Feb-22 13:20 250 22 gusting 35 5.4 6.0
2017-Feb-22 12:50 240 24 gusting 35 5.4 6.0
2017-Feb-22 12:20 260 24 gusting 35 5.4 6.0
2017-Feb-22 11:50 250 25 gusting 34 5.4 6.0
2017-Feb-22 11:20 250 27 gusting 47 5.4 6.0
2017-Feb-22 10:50 260 20 gusting 34 5.4 6.0
2017-Feb-22 10:20 260 20 gusting 32 5.4 6.0
2017-Feb-22 09:50 260 19 gusting 28 5.4 5.0
2017-Feb-22 09:20 270 18 gusting 28 5.4 4.0
2017-Feb-22 08:50 270 20 gusting 29 5.4 4.0
2017-Feb-22 08:20 250 20 gusting 31 5.4 4.0
2017-Feb-22 07:50 260 18 5.4 4.0
2017-Feb-22 07:20 230 13 5.4 4.0
2017-Feb-22 06:50 220 13 5.4 2.0 Light drizzle snow. Mist.
2017-Feb-22 06:20 190 8 1.9 1.0 Light drizzle snow. Mist.
2017-Feb-22 05:50 170 8 3.2 1.0 Light snow. Mist.
2017-Feb-22 05:20 180 11 3.2 1.0 Light snow. Mist.
2017-Feb-22 04:50 170 11 1.3 1.0 Snow. Mist.
2017-Feb-21 18:50 150 4 5.4-2.0
2017-Feb-21 18:20 070 2 5.4-1.0
2017-Feb-21 17:50 310 2 5.4-1.0
2017-Feb-21 17:20 5.4-0.0
2017-Feb-21 16:50 080 4 5.4-0.0
2017-Feb-21 16:20 040 4 5.4-0.0
2017-Feb-21 15:50 040 5 5.4 1.0
2017-Feb-21 15:20 030 6 5.4 1.0
2017-Feb-21 14:50 010 6 5.4 2.0
2017-Feb-21 14:20 040 7 5.4 2.0
2017-Feb-21 13:50 040 8 5.4 2.0
2017-Feb-21 13:20 040 13 5.4 3.0
2017-Feb-21 12:50 030 13 5.4 3.0
2017-Feb-21 12:20 030 14 5.4 3.0
2017-Feb-21 11:50 020 14 5.4 4.0
2017-Feb-21 11:20 320 13 5.4 8.0
2017-Feb-21 10:50 300 11 5.4 8.0
2017-Feb-21 10:20 290 11 5.4 7.0
2017-Feb-21 09:50 280 11 5.4 6.0
2017-Feb-21 09:20 270 9 5.4 6.0
2017-Feb-21 08:50 280 12 5.4 5.0
2017-Feb-21 08:20 270 11 5.4 5.0
2017-Feb-21 07:50 270 12 5.4 4.0
2017-Feb-21 07:20 270 13 5.4 4.0
2017-Feb-21 06:50 250 15 5.4 4.0
2017-Feb-21 06:20 270 14 5.4 4.0
2017-Feb-21 05:50 250 15 5.4 4.0
2017-Feb-21 05:20 270 17 5.4 4.0
2017-Feb-21 04:50 270 15 5.4 5.0